Погода в Харькове

Погода в Харькове : погода сейчас, прогноз погоды и архив. Всё, что Вы хотите узнать о погоде в Харькове!

Хотите узнать прогноз погоды в Харькове? Тогда Вам сюда: Погода в Харькове

Поиск расширенной информации на нашем сайте:

Другие новости

Новости СМИ2

Главная страница сайта

Новости сайта

03.07.2017

Напоминаем, что на нашем специализированном сайте Метеоцентр.Азия вы можете получить высокодетализированные автоматические прогнозы погоды по пунктам России, СНГ и мира в авиационном формате (включающие направление и скорость ветра, видимость, явления погоды, количество и форму облачности, нижнюю и верхнюю границу облачности).

Рекомендуем: Безопасность vip персон

Погода в Харькове - сегодня

Время (UTC), дата Ветер
(°,м/с) 
Видим.   Явления Облачность Т
(°С)
Тd
(°С)
f(%) Тe
(°С)
Pmin
(гПа)
dP
(гПа)
Po
(мм)
O2
(г/м3)
Тmin Tmax R s Состояние
почвы
03 18.07.17 290 (З) 10 км    3/0 верхняя 
[Ci fib]
+13.1 +10.6 85 +16  1020.2  0.5  751  287           
06 18.07.17 310 (СЗ) 10 км    3/0 верхняя 
[Ci fib]
+20.8 +9.6 49 +21  1020  0.3  751  280  +11.3         
09 18.07.17 010 (С) 10 км    4/4 1000 м 
[Cu hum]
+24.7 +8 34 +25  1018.9  -0.8  751  276           
12 18.07.17 320 (СЗ) 10 км    5/5 1000 м 
[Cu hum]
+26.8 +5.8 26 +27  1017.7  -1.1  750  274           
15 18.07.17 340 (С) 10 км    4/4 1000 м 
[Cu hum]
+24.9 +7.5 33 +25  1017  -0.8  749  276           
18 18.07.17 360 (С) 10 км    3/0 верхняя 
[Ci fib]
+22.2 +9.2 43 +22  1017.6  0.4  750  278           
21 18.07.17 320 (СЗ) 10 км    ясно 
+19.2 +9.8 54 +21  1018  0.3  750  281           
00 19.07.17 290 (З) 10 км    ясно 
+15.6 +11.9 79 +21  1018.2  -0.1  750  284           
03 19.07.17 290 (З) 10 км    ясно 
+15.2 +13 87 +22  1018.3  0.1  750  284           
06 19.07.17 220 (ЮЗ) 10 км    ясно 
+22.6 +12.4 52 +27  1018.3  0.5  750  277  +13.2  +3.5       
09 19.07.17 360 (С) 10 км    5/5 1000 м 
[Cu hum]
+27.3 +8.4 30 +27  1017.1  -1  750  273           
12 19.07.17 010 (С) 10 км    6/6 1000 м 
[Cu med, cong]
+27 +7.9 30 +27  1015.7  -1.3  749  273           
15 19.07.17 010 (С) 10 км    5/5 1000 м 
[Cu med, cong]
+27.6 +10.2 34 +29  1014.8  -0.9  748  272           
18 19.07.17 350 (С) 10 км    5/3 1000 м средняя 
[Sc diur, vesp|Ac trans]
+24.6 +13.1 49 +30  1015.7  0.7  748  274           
21 19.07.17 360 (С) 10 км    3/0 средняя 
[Ac trans]
+21.1 +14.1 64 +28  1015.5  -0.4  748  277           
00 20.07.17 330 (СЗ) 10 км    ясно 
+18.3 +14.1 76 +26  1015.6  748  280           
03 20.07.17 340 (С) 10 км    3/0 средняя 
[Ac trans]
+17.3 +14.2 82 +25  1015.4  -0.3  748  280           
06 20.07.17 350 (С) 10 км    ясно 
+22 +14.6 63 +30  1014.9  -0.2  748  276  +16.8         
09 20.07.17 010 (С) 10 км    6/6 1000 м 
[Cu med, cong]
+26.7 +14.2 46 +34  1014.3  -0.3  748  272           
12 20.07.17 350 (С) 10 км    6/6 1000 м 
[Cu med, cong]
+28.1 +11.2 35 +31  1012.8  -1.4  746  271           
15 20.07.17 290 (З) 10 км    4/4 1000 м 
[Cu med, cong]
+28.4 +11 34 +31  1012.2  -0.6  746  270           
18 20.07.17 350 (С) 10 км    3/3 1000 м 
[Sc diur, vesp]
+24.4 +11.1 43 +27  1013.2  0.8  747  274    +29       
21 20.07.17 340 (С) 10 км    ясно 
+20.6 +11.2 55 +23  1013.6  0.1  747  278           
00 21.07.17 300 (СЗ) 10 км    ясно 
+18 +12.5 70 +24  1013.7  747  280           
03 21.07.17 330 (СЗ) 10 км    ясно 
+17.1 +13.4 79 +24  1014.5  0.7  747  281           
Время (UTC), дата Ветер
(°,м/с) 
Видим.   Явления Облачность Т
(°С)
Тd
(°С)
f(%) Тe
(°С)
Pmin
(гПа)
dP
(гПа)
Po
(мм)
O2
(г/м3)
Тmin Tmax R s Состояние
почвы

Для получения пояснительной информации подведите курсор к названию столбца.

ПОГОДА в Харькове - архив

Всё, что Вы хотите узнать о погоде в Харькове - удобно и подробно!

Выберите нужную дату (начиная с 1 января 2015* года) и нажмите кнопку "Найти".
Будут отображены архивные сводки погоды по пункту Харьков, начиная с указанной даты.


Отображать данные в формате CSV (для использования в таблицах Excel)


Внимание! Наш архив погоды предназначен исключительно для личного некоммерческого использования в познавательных целях. Если Вам необходимы официальные справки о состоянии погоды (для производственных, юридических, коммерческих и т.п. целей), обращайтесь в органы Росгидромета.

*Примечание: данная дата относится к архиву по метеостанциям СССР (Россия, СНГ, Балтия).
Архив по метеостанциям Зарубежной Европы и Азии (кроме Китая) хранится 10 дней, по другим регионам земного шара (Китай, Африка, Америка, Австралия, Океания) - 1 день.

Харьков - район местоположения метеостанции


Название, широта, долгота, высота метеостанции:
Харьков 49.1°ш. 36.1°д. 155 м над ур. моря [Украина]

Дополнительная информация

В oтличие oт бoльшинства пoгoдных сайтoв мы публикуем пoдрoбную метеoинфoрмацию в детальнoм прoфессиoнальнoм фoрмате.

Характеристики температуры и влажнoсти вoздуха измеряются на высoте 2 м в тени вдали oт зданий и деревьев.
Скoрoсть ветра измеряется на высoте 10 м (на урoвне рoста челoвека скoрoсть ветра ниже в 1.5-2 раза). Если метеoстанция нахoдится в гoрoде или в лесу, тo скoрoсть ветра занижена на 2-4 м/с пo сравнению с oткрытым местoм. Скoрoсть ветра над акватoриями крупных рек и oзёр, а также на вершинах хoлмoв на 2-5 м/с выше, чем в oбычных услoвиях.
Атмoсфернoе давление в разных тoчках местнoсти мoжет значительнo oтличаться oт давления на метеoстанции, в зависимoсти oт услoвий рельефа (при пoдъёме на 10 м давление пoнижается примернo на 1 мм рт.ст.).